User: anonymous   Login
Location: Mount Cross
(36.6390°N, 79.4878°W)
Time: 11:32:08
(UTC+00:00)
Language:

Transit 2A - Orbit

View from above orbital plane
View from above orbital plane
View from above satellite
View from above satellite

Ground track
Ground track

The orbit data is extracted from the following two-line orbital elements,

1    45U 60007A   23085.16817614  .00000667  00000-0  18890-3 0  9992
2    45  66.6932 234.2739 0260720 298.3682  59.1352 14.34142574267744
Epoch (UTC): 26 March 2023 04:02:10
Eccentricity: 0.0260720
inclination: 66.6932°
perigee height: 591 km
apogee height: 964 km
right ascension of ascending node: 234.2739°
argument of perigee: 298.3682°
revolutions per day: 14.34142574
mean anomaly at epoch: 59.1352°
orbit number at epoch: 26774

The dashed part of the orbit path shows where the satellite is in the earth's shadow,  

DLR